Other Public Products
Issued by NWS Grand Forks, ND

Home | Current Version | Previous Version | Graphics & Text | Print | Product List | Glossary On
Versions: 1 2 3 4 5 6 7 8 9 10 11 12 13 14 15 16 17 18 19 20 21 22 23 24 25 26 27 28 29 30 31 32 33 34 35 36 37 38 39 40 41 42 43 44 45 46 47 48 49 50
000
FPUS83 KFGF 290531
OPUFGF
PRAIRIE TO PINES WEATHER ROUNDUP
NATIONAL WEATHER SERVICE EASTERN NORTH DAKOTA/GRAND FORKS ND
1200 AM CDT SAT APR 29 2017

 **SATELLITE DATA USED TO AUGMENT SKY COVER AT AUTOMATED STATIONS**
 *****  WEATHER ACROSS EASTERN NORTH DAKOTA  *****

CITY           SKY/WX    TMP DP  RH WIND       PRES   REMARKS
GRAND FORKS    FAIR      37  25  61 CALM      30.18R
GRAND FORKS AF FAIR      35  24  63 N5        30.19R
GRAND CITY NWS NOT AVBL
BUXTON           N/A     37  26  63 NW7         N/A
DEVILS LAKE    FAIR      38  27  64 CALM      30.20R
FARGO          FAIR      34  27  75 NW6       30.18R
WAHPETON ARPT  FAIR      34  25  69 CALM      30.19R
$$

 *****  WEATHER ACROSS CENTRAL AND WESTERN NORTH DAKOTA  *****

CITY           SKY/WX    TMP DP  RH WIND       PRES   REMARKS
JAMESTOWN      FAIR      35  29  78 CALM      30.18R
BISMARCK       FAIR      38  22  52 CALM      30.21R
MINOT          FAIR      41  22  46 SW9       30.18R
MINOT AFB      FAIR      38  25  60 S3        30.17R
GARRISON         N/A     39  20  46 CALM      30.18R
WILLISTON      FAIR      45  29  53 S5        30.16R
DICKINSON      FAIR      31  17  56 S8        30.17S WCI  23
HETTINGER      FAIR      30  23  75 CALM      30.21R
$$

 *****  OTHER OBSERVATIONS NORTHEAST NORTH DAKOTA  *****

CITY           SKY/WX    TMP DP  RH WIND       PRES   REMARKS
WALHALLA       NOT AVBL
LANGDON        FAIR      28  21  74 CALM      30.20R
CAVALIER       FAIR      32  21  64 CALM      30.20R
GRAFTON        FAIR      36  23  60 NW6       30.22R
CANDO          NOT AVBL
FORT TOTTEN      N/A     42  18  37 SE3       29.95S
ROLLA          FAIR      37  18  44 CALM      30.20R
RUGBY          NOT AVBL
 ***** THE ABOVE OBSERVATIONS ARE NON NWS ARE NOT QUALITY
        CONTROLLED AND MAY MIS-REPORT RAIN FOR SNOW...
$$

 *****  OTHER OBSERVATIONS SOUTHEAST NORTH DAKOTA *****

CITY           SKY/WX    TMP DP  RH WIND       PRES   REMARKS
COOPERSTOWN    FAIR      34  28  80 CALM      30.20R
VALLEY CITY    FAIR      39  21  48 CALM      30.21R
OAKES          NOT AVBL
GWINNER        CLEAR     37  25  60 MISG      30.19R
SHEYENNE NWR     N/A     38  18  44 N3        29.95S
BUFFALO          N/A     35  20  53 SE2         N/A
WYNDMERE         N/A     30  27  86 S6          N/A  WCI  24
 ***** THE ABOVE OBSERVATIONS ARE NON NWS ARE NOT QUALITY
       CONTROLLED AND MAY MIS-REPORT RAIN FOR SNOW...
$$

  *****  WEATHER ACROSS NORTHERN MINNESOTA  *****

CITY           SKY/WX    TMP DP  RH WIND       PRES   REMARKS
FLAG ISLAND    FAIR      36  21  55 NW3       30.17R
WARROAD        FAIR      36  12  38 NW7       30.19R
ROSEAU         FAIR      36  14  41 NW5       30.18R
HALLOCK        FAIR      34  27  75 NE3       30.20R
THF RVR FALLS  FAIR      38  13  35 N8        30.18S
HALSTAD          N/A     33  27  76 N5          N/A
FOSSTON        FAIR      28  19  69 N5        30.18R WCI  23
BAUDETTE       FAIR      29  22  75 CALM      30.16R
WASKISH        FAIR      28  27  93 CALM      30.18R
CROOKSTON      FAIR      36  28  75 CALM      30.20R
$$
  *****  WEATHER ACROSS CENTRAL AND WEST MINNESOTA  *****

CITY           SKY/WX    TMP DP  RH WIND       PRES   REMARKS
BEMIDJI        FAIR      27  19  72 CALM      30.17R
PARK RAPIDS    FAIR      39  17  41 N7        30.15R
WADENA         FAIR      34  19  55 CALM      30.17R
DETROIT LAKES  FAIR      37  27  65 CALM      30.19R
MOORHEAD       FAIR      36  27  69 CALM      30.20R
FERGUS FALLS   FAIR      37  23  56 NE3       30.18R
ELBOW LAKE     FAIR      36  33  87 CALM      30.18R
MORRIS MN      FAIR      34  25  69 N6        30.16R
STAPLES        FAIR      30  21  69 CALM      30.17R
WHEATON        FAIR      37  23  56 CALM      30.20R
$$
  *****  WEATHER ELSEWHERE ACROSS MINNESOTA  *****

CITY           SKY/WX    TMP DP  RH WIND       PRES   REMARKS
DULUTH         FAIR      34  25  69 N5        30.14R
INTRNTL FALLS  FAIR      25  21  85 CALM      30.16R
ELY            FAIR      25  25 100 CALM      30.15R
CLOQUET        FAIR      34  23  64 N5        30.16R
BRAINERD       FAIR      37  23  56 CALM      30.16R
HIBBING        FAIR      24  22  91 NW3       30.15R
ALEXANDRIA     FAIR      41  20  43 N5        30.16R
SAINT CLOUD    FAIR      40  23  50 N7        30.14R
MINNEAPOLIS    FAIR      41  31  67 N6        30.11R
$$

  *****  WEATHER ACROSS SOUTH DAKOTA  *****

CITY           SKY/WX    TMP DP  RH WIND       PRES   REMARKS
SIOUX FALLS    FAIR      38  27  64 N3        30.13R
BROOKINGS      FAIR      36  22  56 N7        30.14S
WATERTOWN      FAIR      33  20  58 N7        30.15R
HURON          FAIR      33  22  63 N7        30.17R
SISSETON         N/A     33  24  69 NW3       30.17R
ABERDEEN       FAIR      33  23  66 CALM      30.18R
MITCHELL       FAIR      36  24  62 N3        30.17R
PIERRE         FAIR      37  18  46 CALM      30.18R
MOBRIDGE       FAIR      37  13  37 SW3       30.17R
RAPID CITY     FAIR      34  24  67 E6        30.19R
$$

  *****  SOME WEATHER IN NEARBY STATES *****

CITY           SKY/WX    TMP DP  RH WIND       PRES   REMARKS
GLASGOW MT     CLOUDY    44  37  76 NW7       30.17R
GREAT FALLS MT FAIR      34  31  88 S5        30.18R
CHEYENNE WY    CLOUDY    27  25  92 NE13G23   30.09R WCI  16
SCOTTSBLUFF NE CLOUDY    34  32  92 NW6       30.12F
OMAHA NE       CLOUDY    44  37  76 N9        30.08R
DES MOINES IA  CLOUDY    45  39  79 NE10      30.05R
DAVENPORT IA   CLOUDY    45  43  93 NE14      30.00S FOG
CHICAGO IL     CLOUDY    46  39  76 NE13      30.01R
EAU CLAIRE WI  FAIR      34  30  85 CALM      30.09R
LA CROSSE WI   FAIR      42  34  73 N5        30.09R
$$

  *****  SOME NATIONAL WEATHER *****

CITY           SKY/WX    TMP DP  RH WIND       PRES   REMARKS
LA GUARDIA NY  CLOUDY    74  52  46 SW9       30.05R
RALEIGH NC     FAIR      77  72  84 S12       30.11R
ATLANTA GA     MOCLDY    75  67  76 S8        30.10S
NEW ORLEANS LA CLOUDY    78  74  87 SE14      29.94R
OKLAHOMA CITY  CLOUDY    68  62  81 E14       29.64F
ALBUQUERQUE NM CLOUDY    39  33  79 NW13      29.87R
SALT LAKE CITY CLOUDY    41  36  82 CALM      30.03R
LOS ANGELES CA FAIR      72  28  19 N12G22    29.79S
BOISE ID       FAIR      47  30  51 NW13      30.14R
SEATTLE WA     FAIR      54  36  50 NE8       30.31S
$$

*** WEATHER ACROSS MANITOBA...SASKATCHEWAN AND ONTARIO ***
                ***ONTARIO***

CITY           SKY/WX    TMP DP  RH WIND       PRES   REMARKS
GERALDTON      FLURRIES  28  23  80 NW12G22   29.99R WCI  18
THUNDER BAY    MOCLDY    32  25  74 W5        30.13R
SIOUX LOOKOUT  CLOUDY    27  23  86 CALM      30.13R
TORONTO        MOCLDY    57  43  58 W9        29.95F
BIG TROUT LK   CLEAR     27  10  50 NW7       30.06R WCI  19
PICKLE LAKE    NOT AVBL
DRYDEN         PTCLDY    36  14  41 N3        30.13R
KENORA         PTCLDY    39  10  30 N3        30.15R
$$
                *** MANITOBA***

CITY           SKY/WX    TMP DP  RH WIND       PRES   REMARKS
BRANDON        CLEAR     30  18  59 E3        30.19R
DAUPHIN        CLEAR     28  18  64 S2        30.18R
ISLAND LAKE    MOCLDY    30  16  55 NW2       30.17R
PILOT MOUND      N/A     36  21  55 SE6         N/A
THE PAS        CLEAR     32  16  51 SE2       30.16R
THOMPSON       MOCLDY    32  23  69 NE8       30.23R WCI  25
WINNIPEG       CLEAR     30  16  55 NE3       30.19R
LYNN LAKE      MOCLDY    34  27  75 E6        30.20R
CHURCHILL      CLOUDY    18  14  86 N18       30.31R WCI   2
GILLAM         CLOUDY    21  16  79 NE10      30.26R WCI  10
$$
                ***SASKATCHEWAN***

CITY           SKY/WX    TMP DP  RH WIND       PRES   REMARKS
ESTEVAN        PTCLDY    41  28  60 SE9       30.14R
KINDERSLEY     PTCLDY    32  28  86 NW7       30.12R
LLOYDMINSTER   CLOUDY    34  27  75 W7        30.10S
PRINCE ALBERT  MOCLDY    43  34  70 W5        30.09S
REGINA         LGT RAIN  39  36  87 W9        30.16R
YORKTON        CLEAR     39  23  52 SE12      30.10R



USA.gov is the U.S. government's official web portal to all federal, state and local government web resources and services.